[[{"header":{"parameterUnit":"m.s-1","parameterCategory":1,"la1":30.2991,"la2":30.254,"lo1":-89.0895,"lo2":-89.0444,"dy":0.0017,"dx":0.0017,"nx":28,"ny":28,"refTime":"2025-11-04T03:00:00:Z","depth":0,"parameterNumber":2,"parameterNumberName":"U-component_of_WINDS"},"data":[0,0,0,0,0,0,0,0,0,0,0,0,0,0,0,0,0,0,0,0,0,0,0,0,0,0,0,0,0,0,0,0,0,0,0,0,0,0,0,0,0,0,0,0,0,0,0,0,0,0,0,0,0,0,0,0,0,0,-0.0738,-0.0736,0,-0.0514,-0.0512,-0.0509,-0.0395,-0.0395,-0.0395,-0.0395,-0.0164,-0.0158,-0.0152,0,0,0,0,0,0,0,0,0,0,0,0,0,-0.1066,-0.1061,-0.0739,-0.0736,-0.0733,-0.0515,-0.0512,-0.0509,-0.0395,-0.0395,-0.0395,-0.0395,-0.0166,-0.0158,-0.0151,0,0,0,0,0,0,0,0,0,0,0,0,0,-0.0891,-0.1059,-0.0739,-0.065,-0.064,-0.0515,-0.0511,-0.0508,-0.0395,-0.0395,-0.0395,-0.0395,-0.0168,-0.0159,-0.015,-0.0096,0,0,-0.0122,-0.0118,0,0,0,0,0,0,0,0,-0.0901,-0.0879,-0.0666,-0.0656,-0.0645,-0.0483,-0.0542,-0.037,-0.0395,-0.0488,-0.0395,-0.0395,-0.027,-0.0252,-0.021,-0.0085,-0.0075,-0.0121,-0.0116,-0.0112,-0.0109,0,0,0,0,0,0,0,-0.0914,-0.0888,-0.065,-0.0663,-0.065,-0.0621,-0.0596,-0.0509,-0.0382,-0.048,-0.0471,-0.0446,-0.0264,-0.0219,-0.0204,-0.0072,-0.0122,-0.0113,-0.0108,-0.0104,0.0111,0.0111,0,0,0,0,0,0,-0.094,-0.0899,-0.0657,-0.0643,-0.0775,-0.0615,-0.0587,-0.0535,-0.0383,-0.036,-0.0447,-0.0442,-0.0235,-0.0215,-0.0195,-0.0121,-0.0112,-0.0103,-0.0098,0.011,0.0111,0.0111,0,0,0,0,0,0,-0.0948,-0.092,-0.0666,-0.0769,-0.0734,-0.0609,-0.0552,-0.053,-0.0486,-0.0358,-0.0334,-0.0425,-0.0234,-0.0208,-0.0121,-0.0112,-0.0099,-0.0091,0.011,0.0111,0.0111,0.0027,0,0,0,0,0,0,-0.0958,-0.0923,-0.0902,-0.0769,-0.0729,-0.0597,-0.0551,-0.0526,-0.0471,-0.0462,-0.0331,-0.0309,-0.0232,-0.0136,-0.0112,-0.0099,-0.0084,0.011,0.011,0.0111,0.0029,0.0024,0.002,0,0,0,0,0,-0.097,-0.0935,-0.0902,-0.0873,-0.07,-0.0597,-0.0573,-0.0486,-0.0471,-0.0448,-0.0365,-0.0313,-0.0117,-0.0128,-0.01,-0.0084,0.011,0.011,0.0111,0.0031,0.0025,0.002,0,0,0,0,0,0,-0.107,-0.0916,-0.0877,-0.0798,-0.0711,-0.0578,-0.0546,-0.0496,-0.0411,-0.0407,-0.0301,-0.0272,-0.0195,-0.013,-0.0146,-0.0023,0.0002,0.0008,-0.0068,-0.0073,-0.0077,-0.0094,-0.0076,0,0,0,0,0,-0.1083,-0.1012,-0.0881,-0.0824,-0.0782,-0.0672,-0.0624,-0.0564,-0.0469,-0.0432,-0.0343,-0.0252,-0.017,-0.0118,-0.0035,0.0039,0.007,0.0064,0.0059,0.0055,0.0058,0.0104,0.0103,0.0113,0.0113,0.0113,0,0,-0.1108,-0.1016,-0.0977,-0.0841,-0.0767,-0.0695,-0.0642,-0.0568,-0.0514,-0.042,-0.0332,-0.0264,-0.0156,-0.0076,-0.0035,-0.002,0.0063,0.0055,0.0051,0.0057,0.0104,0.0103,0.0102,0.0113,0.0113,0.0113,0,0,-0.1119,-0.1042,-0.0985,-0.0912,-0.08,-0.0726,-0.0713,-0.0586,-0.0537,-0.0448,-0.0376,-0.0309,-0.017,-0.0095,-0.0039,-0.002,0.0031,0.0004,-0.0021,0.0022,0.0021,0.0021,0.0028,0.003,0.0007,0.0007,0.0007,0,-0.1165,-0.1055,-0.0963,-0.0893,-0.0835,-0.0747,-0.0688,-0.0621,-0.0488,-0.0449,-0.0433,-0.0256,-0.0177,-0.0077,-0.0073,-0.003,-0.0011,-0.0011,0.0014,0.0014,0.0016,0.0024,0.0026,0.0003,0.0004,0.0004,0.0004,0,-0.1116,-0.1041,-0.1009,-0.0882,-0.082,-0.0757,-0.0654,-0.0602,-0.0548,-0.0476,-0.0385,-0.0287,-0.0183,-0.0155,-0.01,-0.0046,-0.004,-0.0007,0.002,0.0009,0.0019,0.0023,-0.0003,-0.0001,0.0,0.0001,0,0,-0.1184,-0.1007,-0.0997,-0.0938,-0.0807,-0.0747,-0.0679,-0.0577,-0.0534,-0.0445,-0.0384,-0.0268,-0.0236,-0.0172,-0.0109,-0.0071,-0.0062,-0.0042,-0.0038,-0.0049,0.0005,-0.0021,-0.0019,-0.0027,-0.0026,-0.0025,-0.0004,0,-0.1176,-0.105,-0.0965,-0.0872,-0.0801,-0.0715,-0.0655,-0.0569,-0.05,-0.0428,-0.0351,-0.027,-0.0234,-0.0195,-0.0155,-0.0072,-0.0049,-0.0072,0.0031,0.0034,0.0002,-0.0014,-0.0041,-0.0025,0.0,0.0001,0.0002,0,-0.115,-0.1063,-0.0964,-0.084,-0.0807,-0.0755,-0.0654,-0.0587,-0.0486,-0.0438,-0.0367,-0.0302,-0.0225,-0.0205,-0.0096,-0.0114,-0.0066,-0.0019,-0.0016,-0.0003,0.0017,-0.0,-0.0018,-0.0016,0.0008,0.0008,0.0007,0,-0.1209,-0.1067,-0.0989,-0.0941,-0.0795,-0.076,-0.0698,-0.0596,-0.054,-0.0452,-0.0414,-0.0318,-0.0265,-0.0191,-0.0101,-0.0095,-0.0002,0.0026,0.0041,0.0038,0.0057,0.0054,0.0046,0.0086,0.0086,0.0086,0.0086,0,-0.1209,-0.1151,-0.1013,-0.0966,-0.0898,-0.0799,-0.0735,-0.0665,-0.0575,-0.0511,-0.0432,-0.0373,-0.0258,-0.0185,-0.0114,-0.0035,-0.0012,0.003,0.0048,0.0023,0.0017,0.0055,0.0057,0.0087,0.0087,0.0087,0.0086,0,-0.1263,-0.1169,-0.1078,-0.0947,-0.0912,-0.0868,-0.0755,-0.0705,-0.0631,-0.0551,-0.0526,-0.041,-0.032,-0.0223,-0.0101,-0.0053,0.0023,0.0049,-0.0011,-0.0001,0.0009,0.0007,0.0025,0.0033,0.0066,0.0066,0.0066,0,-0.127,-0.1223,-0.1087,-0.1038,-0.0978,-0.0901,-0.0843,-0.0744,-0.0686,-0.0567,-0.0531,-0.0435,-0.0353,-0.0213,-0.0117,-0.0022,0.0007,0.0007,0.0022,-0.0005,0.0008,0.0004,0.0009,0.0002,0.0001,0.0,-0.0,0,-0.1291,-0.1246,-0.1166,-0.1069,-0.1002,-0.0921,-0.0837,-0.0801,-0.0685,-0.0624,-0.0532,-0.0468,-0.0342,-0.0248,-0.0141,-0.0075,-0.0018,-0.0006,0.0003,-0.0022,-0.0059,-0.0038,-0.0024,-0.0006,-0.0006,-0.0005,-0.0005,-0.0005,-0.132,-0.1275,-0.1172,-0.1084,-0.101,-0.0933,-0.0879,-0.0798,-0.0719,-0.0609,-0.0555,-0.0462,-0.0361,-0.0212,-0.0147,-0.0072,-0.0055,-0.0043,-0.0039,-0.0038,-0.0044,-0.0071,-0.0052,-0.0052,-0.0052,-0.0052,-0.0051,0,-0.1337,-0.1266,-0.1187,-0.1071,-0.1002,-0.0955,-0.0859,-0.0804,-0.0724,-0.0634,-0.0554,-0.0447,-0.0354,-0.0251,-0.0152,-0.0111,-0.0083,-0.0089,-0.0091,-0.0076,-0.0066,-0.0083,-0.0114,-0.0114,-0.0114,-0.0114,-0.0114,-0.0114,-0.1338,-0.1257,-0.12,-0.1082,-0.1011,-0.092,-0.0869,-0.0796,-0.0724,-0.0608,-0.0531,-0.0464,-0.0368,-0.0261,-0.0173,-0.0145,-0.0112,-0.0125,-0.009,-0.0082,-0.0077,-0.0072,-0.0088,-0.0119,-0.0119,-0.0106,-0.0106,-0.0106]},{"header":{"parameterUnit":"m.s-1","parameterCategory":1,"la1":30.2991,"la2":30.254,"lo1":-89.0895,"lo2":-89.0444,"dy":0.0017,"dx":0.0017,"nx":28,"ny":28,"refTime":"2025-11-04T03:00:00:Z","depth":0,"parameterNumber":3,"parameterNumberName":"V-component_of_WINDS"},"data":[0,0,0,0,0,0,0,0,0,0,0,0,0,0,0,0,0,0,0,0,0,0,0,0,0,0,0,0,0,0,0,0,0,0,0,0,0,0,0,0,0,0,0,0,0,0,0,0,0,0,0,0,0,0,0,0,0,0,0.1192,0.1192,0,0.1218,0.1218,0.1218,0.1238,0.1238,0.1238,0.1239,0.1264,0.1265,0.1265,0,0,0,0,0,0,0,0,0,0,0,0,0,0.1158,0.1159,0.1192,0.1192,0.1192,0.1218,0.1218,0.1218,0.1238,0.1238,0.1239,0.1239,0.1264,0.1265,0.1265,0,0,0,0,0,0,0,0,0,0,0,0,0,0.1177,0.1159,0.1192,0.1205,0.1207,0.1218,0.1218,0.1218,0.1238,0.1238,0.1239,0.1239,0.1264,0.1265,0.1266,0.1265,0,0,0.1268,0.1268,0,0,0,0,0,0,0,0,0.1176,0.1179,0.1203,0.1204,0.1206,0.1225,0.1216,0.1234,0.1238,0.1226,0.1239,0.1239,0.1251,0.1253,0.1257,0.1266,0.1267,0.1268,0.1268,0.1269,0.1269,0,0,0,0,0,0,0,0.1175,0.1178,0.1202,0.1203,0.1205,0.121,0.1213,0.1219,0.1237,0.1227,0.1229,0.1232,0.1252,0.1256,0.1258,0.1267,0.1268,0.1269,0.1269,0.1269,0.1276,0.1276,0,0,0,0,0,0,0.1172,0.1176,0.1201,0.1203,0.1191,0.121,0.1214,0.1219,0.1237,0.124,0.1231,0.1232,0.1255,0.1257,0.1259,0.1259,0.1269,0.127,0.127,0.1277,0.1276,0.1276,0,0,0,0,0,0,0.1171,0.1174,0.12,0.119,0.1194,0.121,0.1216,0.1219,0.1223,0.124,0.1243,0.1233,0.1255,0.1258,0.1263,0.126,0.127,0.1271,0.1277,0.1277,0.1276,0.1259,0,0,0,0,0,0,0.117,0.1173,0.1173,0.119,0.1194,0.1204,0.1216,0.1219,0.1225,0.1226,0.1242,0.1245,0.1256,0.1262,0.1264,0.1261,0.1271,0.1277,0.1277,0.1276,0.126,0.1258,0.1256,0,0,0,0,0,0.1168,0.1167,0.1173,0.1176,0.1195,0.1204,0.1206,0.1219,0.1224,0.1224,0.1235,0.1244,0.126,0.1262,0.1265,0.1262,0.1278,0.1277,0.1276,0.126,0.1258,0.1256,0,0,0,0,0,0,0.1149,0.117,0.1176,0.118,0.119,0.1207,0.1208,0.1216,0.1225,0.1226,0.1241,0.1245,0.1248,0.1256,0.1258,0.1262,0.127,0.127,0.1257,0.1255,0.1253,0.1251,0.1272,0,0,0,0,0,0.1146,0.1152,0.1169,0.1171,0.1176,0.1191,0.1195,0.1204,0.1215,0.1219,0.123,0.124,0.1247,0.1252,0.1259,0.1261,0.1264,0.126,0.1259,0.1257,0.1257,0.1258,0.1256,0.1274,0.1274,0.1274,0,0,0.1138,0.115,0.1153,0.1167,0.1176,0.1182,0.1194,0.12,0.1204,0.122,0.1226,0.1234,0.1246,0.1249,0.1252,0.1256,0.1253,0.1256,0.1255,0.1255,0.1257,0.1255,0.1254,0.1274,0.1274,0.1274,0,0,0.1127,0.1137,0.1139,0.1148,0.1161,0.1171,0.1172,0.1187,0.1193,0.1199,0.1211,0.1217,0.1229,0.1237,0.1242,0.1234,0.1243,0.1236,0.1227,0.1228,0.1227,0.1225,0.1222,0.1221,0.1236,0.1236,0.1236,0,0.1116,0.1125,0.1139,0.1144,0.115,0.1165,0.1168,0.1175,0.119,0.1194,0.1198,0.1214,0.1223,0.1228,0.1226,0.1231,0.1231,0.1234,0.1226,0.1225,0.1224,0.1221,0.1219,0.1235,0.1235,0.1235,0.1235,0,0.1111,0.1117,0.1117,0.1131,0.1137,0.1141,0.1155,0.116,0.1168,0.1178,0.1183,0.1195,0.1205,0.1207,0.1215,0.1213,0.1216,0.1223,0.1231,0.1221,0.1218,0.1217,0.1234,0.1234,0.1234,0.1234,0,0,0.1089,0.111,0.111,0.1117,0.1132,0.1137,0.1141,0.1151,0.1154,0.1164,0.1168,0.1178,0.1184,0.1191,0.12,0.1201,0.1193,0.1208,0.1208,0.1204,0.1191,0.1185,0.1184,0.1199,0.1199,0.1199,0.119,0,0.108,0.1088,0.1101,0.1105,0.1111,0.1125,0.1129,0.1138,0.1147,0.1153,0.1163,0.117,0.1178,0.1182,0.1184,0.1194,0.1191,0.1195,0.1202,0.1202,0.1198,0.1183,0.1177,0.1168,0.1189,0.1189,0.1189,0,0.1071,0.1079,0.1084,0.1099,0.1102,0.1105,0.1115,0.1121,0.1132,0.1138,0.1145,0.1155,0.116,0.1168,0.1174,0.1176,0.118,0.1186,0.1186,0.1187,0.1195,0.1183,0.1165,0.1164,0.1188,0.1188,0.1188,0,0.1053,0.1067,0.1071,0.1076,0.1094,0.1095,0.1103,0.1114,0.1119,0.1128,0.1131,0.114,0.1145,0.1152,0.1164,0.1169,0.1169,0.1178,0.1174,0.1174,0.1173,0.1173,0.1156,0.1176,0.1176,0.1176,0.1176,0,0.1042,0.1044,0.1063,0.1066,0.1069,0.1083,0.1086,0.1094,0.1104,0.1109,0.1122,0.1125,0.1142,0.1147,0.1157,0.116,0.1162,0.1167,0.117,0.1166,0.1165,0.1168,0.1169,0.1176,0.1176,0.1176,0.1176,0,0.1023,0.1036,0.1042,0.1058,0.1062,0.1063,0.1077,0.108,0.109,0.1095,0.1097,0.1112,0.1119,0.1132,0.1143,0.1149,0.1151,0.1155,0.1147,0.1148,0.1144,0.1144,0.1128,0.1126,0.1148,0.1148,0.1147,0,0.1015,0.1017,0.1033,0.1037,0.1044,0.105,0.1055,0.107,0.1075,0.1087,0.1089,0.1097,0.1104,0.1115,0.1126,0.1135,0.1139,0.1133,0.114,0.1136,0.1138,0.1138,0.1138,0.1131,0.1131,0.113,0.113,0,0.0998,0.1005,0.1012,0.1021,0.1027,0.1035,0.1044,0.1046,0.1063,0.1067,0.1075,0.1081,0.1092,0.1099,0.1109,0.1117,0.1126,0.1128,0.1127,0.1123,0.1118,0.112,0.1142,0.1128,0.1128,0.1128,0.1129,0.1129,0.0984,0.0987,0.0998,0.1006,0.1014,0.1022,0.1025,0.1035,0.1042,0.1052,0.106,0.1067,0.1078,0.1092,0.1099,0.1104,0.1108,0.1108,0.1107,0.1107,0.1105,0.1118,0.1106,0.1106,0.1106,0.1106,0.1106,0,0.0968,0.0976,0.0983,0.0995,0.1001,0.1009,0.1019,0.1024,0.1029,0.1039,0.1046,0.1054,0.1062,0.1074,0.1083,0.1084,0.1089,0.1086,0.1086,0.1087,0.1101,0.11,0.1082,0.1082,0.1082,0.1082,0.1082,0.1082,0.096,0.0965,0.0972,0.098,0.0989,0.0996,0.1001,0.1008,0.1015,0.1024,0.103,0.1039,0.1049,0.1058,0.1065,0.1069,0.1071,0.1067,0.1071,0.1084,0.1086,0.1088,0.1088,0.1067,0.1067,0.1057,0.1057,0.1057]}]]